Theta_e
318 318 319 319 319 320 319 318 318 316 315 315 315 315 315 317 317 316 315 315 315 315 313 313 313 314 313 313 310 315 332 328 322 316 314 312 308 303 299 300 300 298 298 300 300 300 300
318 319 319 319 318 318 318 317 316 315 315 314 314 315 316 317 317 315 315 314 314 313 312 312 313 313 312 305 316 316 315 319 315 315 314 312 308 308 304 300 298 301 300 298 299 299 301
317 319 318 318 318 318 317 316 315 315 314 315 315 315 316 316 316 314 315 314 313 312 311 312 312 313 315 313 313 311 315 311 311 312 310 310 309 305 303 301 304 302 296 298 299 301 300
317 318 318 317 318 316 316 315 315 314 314 314 317 317 316 316 314 314 314 313 312 311 311 311 312 312 309 319 310 312 311 311 313 314 312 311 311 307 305 303 301 297 297 292 299 302 302
317 317 317 317 317 316 316 315 315 314 314 315 317 316 316 315 314 313 312 311 311 311 311 311 309 313 308 315 310 312 311 310 312 313 311 313 309 304 303 295 292 294 289 294 296 302 301
317 317 316 316 317 316 315 316 315 314 315 315 316 316 316 315 314 313 312 313 314 312 312 315 316 309 315 306 311 310 310 312 311 310 308 306 303 297 296 294 289 291 293 293 293 296 297
316 316 315 316 317 316 315 315 315 315 315 315 316 316 315 315 314 313 311 309 308 306 312 306 307 309 306 307 310 308 312 310 310 307 300 303 297 292 295 297 298 297 294 294 295 300 297
316 315 314 316 316 314 314 316 316 315 315 315 316 315 315 315 314 313 310 313 313 313 302 313 309 308 312 309 305 307 311 306 305 299 302 297 294 299 302 301 299 297 296 295 297 300 296
315 314 313 315 315 314 315 315 314 314 315 315 315 316 315 314 314 310 312 317 323 320 301 307 309 308 309 311 306 305 308 306 302 299 299 296 298 303 302 300 298 297 296 295 295 298 297
315 313 313 314 315 314 314 314 313 313 314 314 314 315 314 312 311 319 316 321 324 323 294 299 304 307 310 309 304 308 309 306 303 299 300 298 303 302 300 299 298 295 301 299 297 293 288
314 312 313 314 314 313 313 313 312 313 313 314 314 315 312 314 313 316 319 324 323 317 281 302 304 313 308 306 305 306 310 308 301 300 301 298 299 300 299 299 301 298 302 299 297 293 291
313 312 313 314 313 313 312 312 312 312 313 314 314 315 312 312 313 322 327 327 314 294 284 300 304 304 302 305 306 306 306 309 308 302 301 299 303 301 300 303 302 302 300 299 297 294 284
312 312 313 313 313 312 312 311 311 311 313 314 315 315 313 323 318 327 327 313 294 286 302 297 299 303 302 301 302 304 303 300 297 293 294 299 300 301 303 299 302 299 295 285 284 282 282
311 312 313 313 313 312 312 310 310 311 312 314 316 315 321 331 331 329 320 304 286 299 297 302 302 302 299 302 301 303 300 296 299 300 296 293 289 298 302 299 295 297 295 284 281 278 285
312 313 312 312 312 312 311 310 310 311 311 314 315 322 325 327 332 325 310 291 294 297 301 300 300 298 297 301 301 300 297 295 298 299 294 294 293 300 301 301 300 298 289 295 288 285 282
312 312 311 312 311 311 309 309 309 310 312 313 317 318 317 328 330 319 303 298 302 303 303 302 295 299 294 297 297 298 297 301 300 301 301 297 291 298 300 302 302 298 298 289 287 280 278
312 312 311 311 311 310 306 308 309 309 311 315 317 305 319 328 322 306 295 300 303 306 307 303 300 298 300 297 298 298 298 300 302 302 300 298 296 294 299 296 294 296 294 294 292 286 279
311 311 310 311 310 307 308 308 309 309 310 313 314 300 322 323 299 301 299 307 302 304 307 306 305 303 300 300 299 299 298 300 304 304 297 298 294 284 293 299 300 297 296 295 282 285 283
310 310 310 310 310 306 308 308 308 308 309 317 308 310 320 320 291 292 307 305 306 303 304 304 303 304 304 300 295 300 300 305 305 301 297 299 291 283 289 295 298 295 297 298 294 285 282
310 310 310 308 306 304 307 308 308 308 309 314 311 297 307 308 309 305 304 302 302 307 305 306 304 305 302 300 302 299 299 304 304 301 301 301 296 287 282 288 292 289 293 295 293 282 284
309 309 309 307 304 304 306 308 308 308 308 315 313 303 302 291 298 303 304 303 301 300 305 306 302 303 301 294 298 297 300 301 303 301 302 299 289 292 293 293 294 293 292 292 290 290 284
309 309 308 309 304 305 309 308 307 307 305 313 310 306 305 301 302 302 300 301 301 303 303 301 300 303 303 295 298 295 300 299 298 300 299 300 287 285 285 294 293 290 292 292 292 292 292
309 308 308 309 307 309 309 308 307 307 309 314 314 313 310 302 301 299 298 303 304 304 303 306 303 300 296 301 303 303 303 302 302 299 295 290 284 283 282 290 287 281 288 294 294 294 293
309 308 308 310 310 310 309 308 307 307 308 318 316 315 302 292 298 301 306 306 303 303 300 306 305 299 304 305 300 298 297 299 302 301 299 287 287 283 278 281 274 292 298 297 294 295 297
308 308 310 310 310 309 308 308 307 307 308 316 316 316 304 290 302 304 304 304 304 305 303 304 305 306 307 304 290 287 285 285 289 301 299 297 285 279 279 277 284 291 295 293 290 290 298
308 309 310 310 309 308 308 307 307 307 308 317 315 317 311 298 298 309 303 304 296 297 297 302 309 310 309 289 285 281 281 286 285 292 296 295 286 283 277 275 272 287 297 300 298 283 298
308 309 309 309 309 308 308 307 307 307 308 314 315 318 316 303 307 308 302 301 306 301 295 300 300 300 304 288 285 284 283 293 285 283 281 281 280 277 281 273 282 294 298 300 283 285 298
307 308 308 309 310 309 308 307 307 307 307 312 316 318 317 305 306 312 312 304 306 303 293 300 296 297 289 286 285 285 282 285 285 291 287 283 280 283 281 278 276 298 297 288 292 297 297
307 307 307 308 309 309 307 307 307 307 307 309 316 319 321 312 309 314 313 312 310 310 305 303 298 302 297 290 289 290 285 287 283 280 295 285 289 285 286 285 294 299 297 301 301 298 297
Wind_Speed
10 10 12 10 9 11 14 15 14 14 13 13 13 12 12 13 12 12 12 12 12 12 12 10 8 8 4 2 9 8 12 9 6 5 8 8 9 5 6 6 4 8 7 7 6 5 7
8 10 12 9 10 12 14 14 14 13 13 12 11 12 11 10 11 12 11 11 11 11 11 8 7 7 2 5 7 5 6 9 10 8 7 11 8 12 7 7 6 6 9 8 5 3 2
9 10 11 9 10 11 13 13 13 12 12 11 11 10 9 9 9 11 11 10 10 10 10 7 6 4 4 12 6 6 7 5 3 1 5 2 5 7 3 6 4 9 6 8 6 8 5
10 9 10 8 9 11 13 13 11 11 11 11 9 8 8 8 10 10 9 10 10 10 9 7 6 4 7 6 4 8 7 5 4 6 6 8 7 6 4 4 4 4 5 5 6 9 6
9 10 8 8 9 11 11 11 10 10 11 11 9 8 8 8 7 9 9 8 10 9 7 5 3 3 7 1 2 4 4 6 3 5 3 5 4 1 6 5 1 2 5 5 6 11 6
9 9 7 8 7 9 10 8 9 9 9 9 9 8 7 7 6 5 5 6 4 7 5 6 8 4 7 4 4 2 4 4 3 4 3 2 1 2 6 5 3 5 6 7 8 5 4
9 7 7 7 5 8 9 9 10 9 8 8 8 7 7 5 4 3 2 1 3 1 4 9 9 5 5 4 3 5 3 4 4 3 4 6 7 3 3 3 4 4 5 12 5 5 2
8 6 7 6 3 6 9 9 8 8 9 8 7 6 5 6 6 6 1 3 3 4 4 13 2 2 0 4 5 5 3 1 3 6 7 5 5 3 5 2 4 4 6 6 3 4 3
8 6 6 4 3 4 7 9 8 8 7 7 6 5 7 9 11 5 4 7 5 6 3 2 3 4 3 3 3 3 4 5 7 6 7 8 2 4 3 8 9 7 6 5 3 7 6
9 6 5 3 4 4 6 8 9 8 8 6 5 6 10 12 3 4 4 5 2 1 5 4 3 2 3 4 3 1 1 3 2 5 10 7 1 3 5 7 6 5 6 5 6 4 3
10 6 4 1 3 5 6 7 7 7 7 7 6 8 12 6 5 1 4 6 4 6 5 6 3 1 2 2 8 1 1 5 4 3 7 2 7 9 9 4 5 3 0 3 3 4 3
9 7 5 2 2 5 7 7 8 8 8 8 5 7 12 1 2 5 5 7 6 9 0 2 5 5 4 4 2 4 2 1 2 9 8 4 5 5 5 5 3 5 4 5 3 2 3
10 8 5 3 2 4 7 7 8 7 7 8 5 8 7 3 2 5 5 5 7 6 4 5 4 5 7 0 6 6 4 7 5 3 2 5 5 3 3 4 1 4 5 4 5 5 4
10 9 5 3 4 4 6 7 7 7 6 6 4 7 9 1 3 5 5 7 1 3 5 6 5 5 6 3 3 2 7 5 9 6 1 5 5 6 8 5 1 5 4 6 2 1 4
11 9 6 3 4 4 6 8 8 6 5 4 1 3 1 3 3 4 6 4 8 3 6 6 4 5 5 1 1 7 7 4 5 7 5 4 3 3 5 4 4 5 5 2 6 4 4
11 9 6 4 4 5 6 8 8 6 3 2 2 2 2 3 3 5 5 5 2 4 3 5 6 5 7 7 4 5 5 5 2 7 4 5 5 3 2 2 4 6 2 7 5 2 3
11 9 6 5 3 6 5 7 8 7 3 4 1 3 4 2 5 5 2 5 3 8 8 2 2 1 4 7 6 5 4 6 8 4 8 5 4 3 2 5 4 5 3 4 3 5 5
11 9 6 5 4 6 5 8 9 6 2 2 2 1 4 3 4 3 3 5 1 2 4 5 6 6 4 5 6 7 5 5 8 6 3 3 5 3 4 2 2 2 3 5 6 3 1
11 8 7 4 4 4 5 7 8 6 4 2 3 3 3 5 3 3 6 3 3 5 2 2 5 5 5 4 6 10 5 6 8 5 1 3 3 3 6 5 5 2 3 5 6 4 3
10 8 7 4 3 4 6 7 7 6 2 2 2 3 3 2 2 4 4 2 3 6 4 5 5 2 6 6 5 4 4 3 5 3 3 3 4 6 7 4 1 3 4 3 7 5 5
10 8 7 5 2 4 6 7 8 7 3 3 2 5 8 4 5 5 5 9 6 1 1 3 1 4 5 4 5 6 5 4 2 1 3 4 4 5 4 6 5 4 5 6 4 6 7
10 8 7 5 3 3 6 7 8 8 2 2 1 3 2 5 4 2 4 5 9 7 6 5 4 6 8 5 2 7 8 5 4 5 2 5 1 2 3 7 9 5 8 8 7 7 6
10 7 7 5 3 4 6 7 9 9 2 2 3 1 6 4 3 4 3 1 2 7 4 5 8 13 15 6 10 7 8 7 6 5 3 4 5 3 3 5 5 6 4 3 2 2 2
10 8 7 5 4 5 6 7 8 8 5 1 2 3 6 4 3 5 5 2 7 6 5 7 10 10 3 4 6 10 12 12 9 8 6 6 4 3 3 4 3 6 4 3 6 6 7
10 9 6 5 5 5 6 8 10 10 9 1 2 3 5 1 3 1 4 6 13 14 9 12 8 8 8 7 6 5 7 8 7 5 7 5 5 4 3 1 6 8 2 4 5 4 9
10 8 6 6 6 6 7 8 10 12 14 2 2 1 5 7 5 5 4 11 6 4 6 5 6 5 8 5 5 5 5 6 3 3 9 6 6 5 2 5 7 8 4 6 4 2 4
9 8 7 7 6 6 7 9 10 12 13 2 1 2 3 4 4 5 4 6 6 6 5 3 1 6 7 4 3 3 3 3 6 7 4 3 3 5 4 3 8 9 2 5 6 8 5
9 8 7 7 6 7 7 8 10 11 12 5 2 1 3 4 3 7 8 6 5 5 6 5 6 5 4 4 4 4 3 5 3 6 8 8 7 5 2 2 9 6 2 8 6 4 7
8 7 7 6 6 6 7 8 10 12 13 7 3 2 2 6 3 2 3 3 4 3 7 3 7 5 6 5 1 3 1 1 4 4 5 2 9 8 10 9 8 6 6 5 7 7 5
Wind_Direction
258 274 279 285 294 291 300 303 301 300 296 289 280 271 261 259 257 257 256 260 269 277 283 297 312 324 296 230 250 229 192 193 158 182 223 231 266 213 246 231 136 96 95 79 73 34 74
250 273 281 291 294 300 304 306 306 302 295 287 278 267 254 253 250 252 254 259 266 274 280 290 313 316 230 257 239 186 256 146 217 210 240 231 241 231 249 158 127 127 105 117 161 130 52
249 269 281 290 293 306 305 307 308 302 295 294 281 270 254 245 246 249 252 259 264 270 278 294 304 286 264 248 345 312 273 275 304 268 328 32 360 38 18 61 84 121 117 164 184 173 173
247 263 280 293 295 307 309 309 311 303 306 297 285 262 245 231 241 246 253 259 267 274 286 297 293 261 254 251 329 318 295 316 295 318 3 355 348 358 27 104 44 177 123 150 232 180 197
247 268 278 293 294 307 315 311 313 309 310 301 292 262 233 222 224 237 249 267 276 280 274 282 250 213 264 165 258 281 342 303 149 320 334 306 358 343 16 119 339 260 227 182 197 180 147
239 260 279 284 301 313 317 316 316 319 309 302 286 252 227 212 213 215 246 268 331 296 230 224 254 333 276 231 127 323 291 306 283 214 274 238 325 72 25 67 194 252 248 195 149 192 122
227 254 271 286 322 321 312 330 327 321 312 304 296 253 211 192 186 175 215 287 358 310 230 197 201 220 149 109 141 230 187 242 301 187 240 261 74 117 94 10 301 340 348 103 108 114 119
221 238 264 284 334 314 317 323 331 334 314 310 285 252 186 156 150 139 286 248 299 231 261 247 165 143 49 202 135 101 130 227 213 258 272 34 83 11 297 82 344 324 4 31 100 124 118
217 224 257 286 316 309 320 320 342 330 305 286 271 240 169 137 129 139 208 239 349 7 158 358 329 62 319 347 60 68 45 314 238 252 91 100 134 268 348 49 19 48 73 18 32 341 342
213 212 234 276 306 342 324 327 347 328 307 288 251 200 151 133 106 205 214 243 10 29 90 178 245 154 273 120 65 342 310 221 333 81 109 94 237 320 62 55 31 65 9 0 329 22 236
201 200 213 208 314 336 328 334 346 328 303 269 224 161 163 167 317 345 312 330 307 59 70 214 65 147 141 258 162 329 88 335 309 67 76 56 53 34 55 42 18 151 266 280 310 303 4
189 188 201 127 342 342 333 337 356 329 302 275 239 174 146 219 237 274 346 313 53 47 249 131 140 198 173 195 61 147 152 274 309 90 72 103 87 48 355 307 238 281 286 260 252 150 33
181 186 179 120 41 354 340 347 355 324 309 281 226 173 177 276 224 324 335 45 32 108 137 155 181 149 129 337 174 162 114 51 33 94 157 105 85 147 353 314 32 2 32 0 7 18 212
180 177 155 115 57 359 351 357 349 321 312 274 190 151 235 209 349 15 40 47 290 235 209 139 152 136 113 109 347 95 101 50 3 13 241 131 5 5 341 64 358 306 86 129 88 47 296
179 163 145 118 62 17 1 2 348 324 318 298 354 238 275 278 18 52 65 57 206 248 109 126 163 129 84 69 277 94 78 86 15 1 78 83 86 65 39 339 38 349 45 184 107 325 48
171 157 147 115 61 43 1 1 355 350 343 68 154 130 218 209 74 56 71 238 244 8 71 124 176 194 166 164 199 106 70 355 39 9 43 12 99 347 135 329 350 112 213 42 359 89 329
168 150 157 113 73 60 353 360 1 0 21 145 40 78 256 164 68 49 175 236 67 29 16 44 281 102 132 148 180 101 71 35 14 31 58 19 82 280 24 33 27 2 13 47 94 112 147
159 150 155 117 78 59 359 5 354 358 5 119 165 72 258 70 82 210 230 231 50 72 308 18 37 65 109 66 62 73 94 61 354 341 65 17 118 66 116 95 344 305 69 86 107 320 74
146 161 149 125 78 44 14 4 345 7 38 143 155 142 305 83 142 287 274 44 84 176 222 52 41 40 52 88 85 106 88 25 21 48 81 348 24 48 7 2 334 341 91 111 111 99 188
146 172 144 112 63 35 13 359 349 14 346 92 63 88 356 42 233 220 188 125 66 15 47 48 91 52 73 79 65 116 107 69 54 56 333 56 72 142 174 209 211 347 318 171 131 115 205
151 172 141 130 81 34 10 359 1 6 332 104 237 208 170 216 291 249 180 165 138 106 342 92 177 159 135 125 122 105 99 146 104 86 19 74 92 16 328 324 319 302 317 322 290 218 150
154 162 148 124 90 39 17 7 12 8 21 98 273 85 70 183 211 269 162 196 160 185 133 229 172 162 105 88 159 168 144 163 169 214 101 24 133 17 319 18 13 324 308 301 298 298 305
149 153 147 138 129 53 29 8 18 11 360 184 246 262 105 303 198 89 247 49 53 107 2 257 105 83 74 68 68 48 85 73 80 117 88 66 123 78 259 356 352 4 253 247 257 17 139
148 153 155 135 98 57 35 15 13 21 17 212 275 72 78 283 99 162 157 211 134 101 102 40 92 95 159 127 57 24 30 38 67 63 106 126 93 87 217 15 45 237 324 42 107 50 42
150 151 150 125 95 61 37 22 10 7 5 187 359 87 112 191 200 339 230 121 74 67 53 65 24 119 135 51 62 47 353 18 330 91 78 87 107 81 113 192 294 323 72 86 87 19 62
151 150 137 115 87 59 40 29 14 8 359 74 65 242 114 118 262 237 131 128 130 99 24 32 9 18 68 79 80 141 187 186 176 120 39 43 79 107 76 134 207 228 69 77 70 257 74
146 135 124 105 80 56 39 29 19 13 5 19 10 29 88 105 342 35 144 135 122 102 109 98 8 17 58 78 94 142 241 180 162 168 192 43 350 142 176 208 284 251 228 116 98 229 140
137 126 116 96 73 52 38 28 17 12 7 21 240 340 102 101 345 17 11 96 94 96 130 210 54 334 51 80 122 215 141 236 108 183 174 164 152 195 191 207 275 218 113 149 196 137 153
125 122 116 96 72 46 34 25 14 8 3 354 45 319 41 86 174 63 114 63 72 156 135 147 175 161 174 95 157 125 52 34 142 226 181 191 183 180 174 211 222 202 173 127 143 150 167